Juneau, WI

12:06 AM CDT on June 23, 2017 (GMT -0500)
Dodge County

Weather History for KUNU - February, 2012

Change the Weather History Date:

Wednesday, February 22, 2012

  Actual Average Record
Temperature  
Mean Temperature 34 °F -  
Max Temperature 41 °F 31 °F 65 °F (2017)
Min Temperature 28 °F 18 °F -10 °F (1989)
Degree Days  
Heating Degree Days 30    
Moisture  
Dew Point 24 °F    
Average Humidity 68    
Maximum Humidity 81    
Minimum Humidity 49    
Precipitation  
Precipitation 0.00 in - - ()
Sea Level Pressure  
Sea Level Pressure 29.48 in    
Wind  
Wind Speed 12 mph (SW)    
Max Wind Speed 16 mph    
Max Gust Speed 25 mph    
Visibility 10 miles    
Events      
Averages and records for this station are not official NWS values.
T = Trace of Precipitation, MM = Missing Value Source: NWS Daily Summary

Daily Weather History Graph

Daily Weather History Graph

Search for Another Location

Airport or City:

Trip Planner

Search our weather history database for the weather conditions in past years. The results will help you decide how hot, cold, wet, or windy it might be!

Date:

Astronomy

Feb. 22, 2012 Rise Set
Actual Time 6:43 AM CST 5:34 PM CST
Civil Twilight 6:14 AM CST 6:03 PM CST
Nautical Twilight 5:41 AM CST 6:36 PM CST
Astronomical Twilight 5:08 AM CST 7:09 PM CST
Moon 6:38 AM CST (2/22) 6:44 PM CST (2/22)
Length of Visible Light 11h 48m
Length of Day
10h 50m
New Moon, 1% of the Moon is Illuminated
Feb 22
New Moon
Feb 29
First Quarter
Mar 8
Full
Mar 14
Last Quarter
Mar 22
New

Hourly Weather History & Observations

Time (CST) Temp. Windchill Dew Point Humidity Pressure Visibility Wind Dir Wind Speed Gust Speed Precip Events Conditions
12:15 AM 32.0 °F 21.2 °F 23.0 °F 69% 29.59 in 10.0 mi SW 16.1 mph 19.6 mph N/A   Overcast
12:35 AM 32.0 °F 21.2 °F 23.0 °F 69% 29.59 in 10.0 mi SW 16.1 mph 20.7 mph N/A   Overcast
12:55 AM 32.0 °F 22.5 °F 23.0 °F 69% 29.58 in 10.0 mi SW 12.7 mph - N/A   Overcast
1:15 AM 32.0 °F 21.6 °F 21.2 °F 64% 29.57 in 10.0 mi SW 15.0 mph - N/A   Scattered Clouds
1:35 AM 32.0 °F 21.6 °F 21.2 °F 64% 29.57 in 10.0 mi SW 15.0 mph 19.6 mph N/A   Clear
1:55 AM 32.0 °F 22.5 °F 21.2 °F 64% 29.56 in 10.0 mi SW 12.7 mph - N/A   Clear
2:15 AM 32.0 °F 22.1 °F 21.2 °F 64% 29.56 in 10.0 mi SW 13.8 mph - N/A   Clear
2:35 AM 30.2 °F 19.8 °F 23.0 °F 75% 29.55 in 10.0 mi SW 13.8 mph - N/A   Clear
2:55 AM 30.2 °F 20.2 °F 23.0 °F 75% 29.55 in 10.0 mi SW 12.7 mph - N/A   Clear
3:15 AM 30.2 °F 21.3 °F 23.0 °F 75% 29.54 in 10.0 mi SW 10.4 mph - N/A   Clear
3:35 AM 30.2 °F 22.6 °F 23.0 °F 75% 29.54 in 10.0 mi SW 8.1 mph - N/A   Clear
3:55 AM 28.4 °F 19.7 °F 23.0 °F 80% 29.54 in 10.0 mi SW 9.2 mph - N/A   Clear
4:15 AM 28.4 °F 19.7 °F 23.0 °F 80% 29.55 in 10.0 mi SSW 9.2 mph - N/A   Clear
4:35 AM 28.4 °F 19.1 °F 23.0 °F 80% 29.55 in 10.0 mi SSW 10.4 mph - N/A   Clear
4:55 AM 28.4 °F 21.2 °F 23.0 °F 80% 29.54 in 10.0 mi SSW 6.9 mph - N/A   Clear
5:15 AM 28.4 °F 19.7 °F 23.0 °F 80% 29.54 in 10.0 mi SSW 9.2 mph - N/A   Clear
5:35 AM 28.4 °F 19.1 °F 23.0 °F 80% 29.53 in 10.0 mi SSW 10.4 mph - N/A   Clear
5:55 AM 28.4 °F 19.7 °F 23.0 °F 80% 29.53 in 10.0 mi SSW 9.2 mph - N/A   Clear
6:15 AM 28.4 °F 20.4 °F 23.0 °F 80% 29.52 in 10.0 mi SSW 8.1 mph - N/A   Clear
6:55 AM 28.4 °F 21.2 °F 23.0 °F 80% 29.52 in 10.0 mi SSW 6.9 mph - N/A   Clear
7:15 AM 28.4 °F 21.2 °F 23.0 °F 80% 29.51 in 10.0 mi SW 6.9 mph - N/A   Clear
7:35 AM 30.2 °F 23.4 °F 23.0 °F 75% 29.51 in 10.0 mi SW 6.9 mph - N/A   Clear
7:55 AM 30.2 °F 24.3 °F 23.0 °F 75% 29.50 in 10.0 mi SSW 5.8 mph - N/A   Clear
8:15 AM 30.2 °F 21.9 °F 23.0 °F 75% 29.50 in 10.0 mi SW 9.2 mph - N/A   Clear
8:35 AM 32.0 °F 23.6 °F 24.8 °F 75% 29.50 in 10.0 mi SSW 10.4 mph - N/A   Clear
8:55 AM 32.0 °F 24.2 °F 26.6 °F 80% 29.49 in 10.0 mi SW 9.2 mph - N/A   Clear
9:15 AM 32.0 °F 23.0 °F 24.8 °F 75% 29.49 in 10.0 mi SW 11.5 mph - N/A   Clear
9:35 AM 33.8 °F 25.3 °F 26.6 °F 75% 29.48 in 10.0 mi SW 11.5 mph - N/A   Clear
9:55 AM 35.6 °F 26.6 °F 24.8 °F 65% 29.48 in 10.0 mi SW 13.8 mph 18.4 mph N/A   Clear
10:15 AM 35.6 °F 27.1 °F 24.8 °F 65% 29.47 in 10.0 mi WSW 12.7 mph 17.3 mph N/A   Clear
10:55 AM 37.4 °F 30.3 °F 23.0 °F 56% 29.46 in 10.0 mi WSW 10.4 mph 17.3 mph N/A   Clear
11:15 AM 37.4 °F 30.3 °F 23.0 °F 56% 29.45 in 10.0 mi WSW 10.4 mph - N/A   Clear
11:35 AM 37.4 °F 29.3 °F 23.0 °F 56% 29.44 in 10.0 mi WSW 12.7 mph - N/A   Clear
11:55 AM 39.2 °F 31.2 °F 23.0 °F 52% 29.44 in 10.0 mi WSW 13.8 mph - N/A   Scattered Clouds
12:15 PM 39.2 °F 30.5 °F 24.8 °F 56% 29.43 in 10.0 mi WSW 16.1 mph 20.7 mph N/A   Mostly Cloudy
12:35 PM 39.2 °F 32.0 °F 23.0 °F 52% 29.42 in 10.0 mi WSW 11.5 mph 18.4 mph N/A   Scattered Clouds
12:55 PM 41.0 °F 32.8 °F 23.0 °F 49% 29.42 in 10.0 mi WSW 16.1 mph 20.7 mph N/A   Mostly Cloudy
1:15 PM 41.0 °F 33.5 °F 23.0 °F 49% 29.41 in 10.0 mi WSW 13.8 mph 20.7 mph N/A   Mostly Cloudy
1:35 PM 39.2 °F 30.8 °F 21.2 °F 49% 29.40 in 10.0 mi WSW 15.0 mph - N/A   Overcast
1:55 PM 39.2 °F 31.2 °F 21.2 °F 49% 29.40 in 10.0 mi WSW 13.8 mph 25.3 mph N/A   Mostly Cloudy
2:15 PM 39.2 °F 30.8 °F 21.2 °F 49% 29.39 in 10.0 mi SW 15.0 mph - N/A   Mostly Cloudy
2:35 PM 39.2 °F 31.2 °F 21.2 °F 49% 29.39 in 10.0 mi WSW 13.8 mph - N/A   Overcast
2:55 PM 41.0 °F 33.1 °F 23.0 °F 49% 29.40 in 10.0 mi SW 15.0 mph - N/A   Overcast
3:15 PM 37.4 °F 28.5 °F 23.0 °F 56% 29.39 in 10.0 mi SW 15.0 mph 20.7 mph N/A   Scattered Clouds
3:35 PM 37.4 °F 28.5 °F 26.6 °F 65% 29.40 in 10.0 mi SW 15.0 mph - N/A   Scattered Clouds
3:55 PM 37.4 °F 30.8 °F 26.6 °F 65% 29.39 in 10.0 mi SW 9.2 mph - N/A   Scattered Clouds
4:15 PM 37.4 °F 28.5 °F 26.6 °F 65% 29.39 in 10.0 mi SW 15.0 mph - N/A   Mostly Cloudy
4:35 PM 37.4 °F 29.8 °F 26.6 °F 65% 29.39 in 10.0 mi SW 11.5 mph - N/A   Mostly Cloudy
4:55 PM 35.6 °F 27.1 °F 26.6 °F 70% 29.39 in 10.0 mi SW 12.7 mph - N/A   Overcast
5:15 PM 35.6 °F 28.6 °F 28.4 °F 75% 29.39 in 10.0 mi SW 9.2 mph - N/A   Overcast
5:35 PM 35.6 °F 29.2 °F 26.6 °F 70% 29.39 in 10.0 mi SW 8.1 mph - N/A   Mostly Cloudy
5:55 PM 33.8 °F 27.7 °F 26.6 °F 75% 29.39 in 10.0 mi SW 6.9 mph - N/A   Scattered Clouds
6:15 PM 33.8 °F 27.0 °F 28.4 °F 81% 29.40 in 10.0 mi SW 8.1 mph - N/A   Scattered Clouds
6:35 PM 33.8 °F 28.6 °F 28.4 °F 81% 29.40 in 10.0 mi SW 5.8 mph - N/A   Scattered Clouds
6:55 PM 32.0 °F 24.8 °F 28.4 °F 87% 29.41 in 10.0 mi SSW 8.1 mph - N/A   Mostly Cloudy
7:15 PM 32.0 °F 26.4 °F 28.4 °F 87% 29.41 in 10.0 mi SW 5.8 mph - N/A   Overcast
7:35 PM 32.0 °F 26.4 °F 26.6 °F 80% 29.41 in 10.0 mi WSW 5.8 mph - N/A   Scattered Clouds
7:55 PM 32.0 °F 26.4 °F 28.4 °F 87% 29.41 in 10.0 mi WSW 5.8 mph - N/A   Clear
8:15 PM 30.2 °F 24.3 °F 28.4 °F 93% 29.41 in 10.0 mi WSW 5.8 mph - N/A   Mostly Cloudy
8:35 PM 32.0 °F 26.4 °F 28.4 °F 87% 29.42 in 10.0 mi WSW 5.8 mph - N/A   Scattered Clouds
8:55 PM 30.2 °F 25.4 °F 28.4 °F 93% 29.42 in 10.0 mi SW 4.6 mph - N/A   Clear
9:15 PM 32.0 °F 28.7 °F 28.4 °F 87% 29.43 in 10.0 mi SW 3.5 mph - N/A   Clear
9:35 PM 32.0 °F 27.5 °F 28.4 °F 87% 29.43 in 10.0 mi SW 4.6 mph - N/A   Clear
9:55 PM 30.2 °F 24.3 °F 28.4 °F 93% 29.43 in 10.0 mi SW 5.8 mph - N/A   Clear
10:15 PM 30.2 °F 26.7 °F 30.2 °F 100% 29.43 in 10.0 mi SW 3.5 mph - N/A   Clear
10:55 PM 30.2 °F - 30.2 °F 100% 29.43 in 10.0 mi Calm Calm - N/A   Clear
11:15 PM 30.2 °F - 30.2 °F 100% 29.43 in 10.0 mi Calm Calm - N/A   Clear
11:35 PM 30.2 °F - 28.4 °F 93% 29.44 in 10.0 mi Calm Calm - N/A   Clear
11:55 PM 30.2 °F - 28.4 °F 93% 29.44 in 10.0 mi Calm Calm - N/A   Clear